| time (UTC) | temp F | wind direction | speed MPH | gust MPH | rain 1hr in | rain 24hr in | rain mn in | humidity % | barometer mb |
| 20260504151003 | 66 | 228 | 12.0 | 21.0 | 0.00 | 0.00 | 0.00 | 67 | 1008.3 |
| 20260504150501 | 65 | 214 | 15.0 | 17.0 | 0.00 | 0.00 | 0.00 | 66 | 1008.2 |
| 20260504141002 | 62 | 210 | 13.0 | 22.0 | 0.00 | 0.00 | 0.00 | 68 | 1008.5 |
| 20260504140502 | 61 | 212 | 15.0 | 20.0 | 0.00 | 0.00 | 0.00 | 70 | 1008.4 |
| 20260504130501 | 58 | 197 | 5.0 | 22.0 | 0.00 | 0.00 | 0.00 | 73 | 1008.8 |
| 20260504110502 | 48 | 210 | 9.0 | 11.0 | 0.00 | 0.00 | 0.00 | 84 | 1008.9 |
| 20260504100501 | 49 | 194 | 7.0 | 18.0 | 0.00 | 0.00 | 0.00 | 81 | 1008.9 |
| 20260504082002 | 48 | 165 | 6.0 | 14.0 | 0.00 | 0.00 | 0.00 | 83 | 1009.7 |
| 20260504081502 | 48 | 180 | 6.0 | 13.0 | 0.00 | 0.00 | 0.00 | 83 | 1009.8 |
| 20260504081002 | 48 | 201 | 7.0 | 14.0 | 0.00 | 0.00 | 0.00 | 82 | 1009.8 |
| 20260504080502 | 49 | 182 | 5.0 | 15.0 | 0.00 | 0.00 | 0.00 | 82 | 1009.8 |
| 20260504050502 | 49 | 200 | 9.0 | 12.0 | 0.00 | 0.00 | 0.00 | 78 | 1011.6 |
| 20260504050003 | 50 | 195 | 8.0 | 13.0 | 0.00 | 0.00 | 0.00 | 78 | 1011.5 |
| 20260504045502 | 50 | 132 | 5.0 | 12.0 | 0.00 | 0.00 | 0.00 | 79 | 1011.7 |
| 20260504045001 | 49 | 157 | 5.0 | 10.0 | 0.00 | 0.00 | 0.00 | 79 | 1011.8 |
| 20260504044501 | 49 | 176 | 7.0 | 12.0 | 0.00 | 0.00 | 0.00 | 79 | 1011.6 |
| 20260504044002 | 49 | 172 | 5.0 | 13.0 | 0.00 | 0.00 | 0.00 | 80 | 1011.6 |
| 20260504043502 | 49 | 180 | 5.0 | 11.0 | 0.00 | 0.00 | 0.00 | 81 | 1011.7 |
| 20260504043002 | 48 | 166 | 5.0 | 12.0 | 0.00 | 0.00 | 0.00 | 82 | 1011.9 |
| 20260504042501 | 48 | 165 | 4.0 | 12.0 | 0.00 | 0.00 | 0.00 | 81 | 1011.7 |
| 20260504042001 | 48 | 165 | 5.0 | 11.0 | 0.00 | 0.00 | 0.00 | 82 | 1011.9 |
| 20260504041501 | 48 | 146 | 8.0 | 12.0 | 0.00 | 0.00 | 0.00 | 81 | 1012.0 |
| 20260504041002 | 49 | 152 | 4.0 | 10.0 | 0.00 | 0.00 | 0.00 | 81 | 1011.9 |
| 20260504040502 | 49 | 151 | 6.0 | 10.0 | 0.00 | 0.00 | 0.00 | 81 | 1012.0 |
| 20260504040002 | 49 | 168 | 5.0 | 19.0 | 0.00 | 0.00 | 0.00 | 80 | 1012.2 |
| 20260504035501 | 49 | 155 | 13.0 | 13.0 | 0.00 | 0.00 | 0.00 | 80 | 1012.1 |
| 20260504035002 | 49 | 151 | 6.0 | 15.0 | 0.00 | 0.00 | 0.00 | 81 | 1012.2 |
| 20260504034502 | 49 | 159 | 7.0 | 11.0 | 0.00 | 0.00 | 0.00 | 81 | 1012.2 |
| 20260504034002 | 49 | 157 | 10.0 | 12.0 | 0.00 | 0.00 | 0.00 | 81 | 1012.3 |
| 20260504033502 | 49 | 175 | 6.0 | 11.0 | 0.00 | 0.00 | 0.00 | 81 | 1012.3 |
| 20260504033001 | 49 | 153 | 4.0 | 13.0 | 0.00 | 0.00 | 0.00 | 81 | 1012.4 |
| 20260504032502 | 50 | 149 | 8.0 | 13.0 | 0.00 | 0.00 | 0.00 | 80 | 1012.4 |
| 20260504032002 | 50 | 155 | 6.0 | 16.0 | 0.00 | 0.00 | 0.00 | 79 | 1012.2 |
| 20260504031501 | 50 | 158 | 10.0 | 14.0 | 0.00 | 0.00 | 0.00 | 79 | 1012.5 |
| 20260504031002 | 50 | 171 | 6.0 | 15.0 | 0.00 | 0.00 | 0.00 | 79 | 1012.5 |
| 20260504030501 | 50 | 188 | 5.0 | 12.0 | 0.00 | 0.00 | 0.00 | 79 | 1012.5 |
| 20260504030002 | 50 | 170 | 4.0 | 15.0 | 0.00 | 0.00 | 0.00 | 79 | 1012.6 |
| 20260504025502 | 50 | 176 | 7.0 | 15.0 | 0.00 | 0.00 | 0.00 | 79 | 1012.6 |
| 20260504025001 | 50 | 188 | 7.0 | 15.0 | 0.00 | 0.00 | 0.00 | 79 | 1012.7 |
| 20260504024502 | 50 | 148 | 8.0 | 17.0 | 0.00 | 0.00 | 0.00 | 79 | 1012.7 |
| 20260504024001 | 50 | 179 | 3.0 | 17.0 | 0.00 | 0.00 | 0.00 | 79 | 1012.7 |
| 20260504023501 | 50 | 167 | 6.0 | 19.0 | 0.00 | 0.00 | 0.00 | 78 | 1012.7 |
| 20260504023001 | 50 | 156 | 6.0 | 18.0 | 0.00 | 0.00 | 0.00 | 77 | 1012.8 |
| 20260504022502 | 50 | 172 | 19.0 | 19.0 | 0.00 | 0.00 | 0.00 | 77 | 1013.0 |
| 20260504022002 | 50 | 161 | 5.0 | 17.0 | 0.00 | 0.00 | 0.00 | 78 | 1012.9 |
| 20260504021501 | 50 | 207 | 15.0 | 18.0 | 0.00 | 0.00 | 0.00 | 78 | 1012.7 |
| 20260504021002 | 50 | 165 | 10.0 | 13.0 | 0.00 | 0.00 | 0.00 | 80 | 1012.8 |
| 20260504020501 | 50 | 173 | 5.0 | 16.0 | 0.00 | 0.00 | 0.00 | 80 | 1012.6 |
| 20260504020002 | 50 | 187 | 5.0 | 15.0 | 0.00 | 0.00 | 0.00 | 81 | 1012.9 |
| 20260504015501 | 50 | 201 | 9.0 | 17.0 | 0.00 | 0.00 | 0.00 | 80 | 1012.6 |
| 20260504015002 | 49 | 201 | 4.0 | 11.0 | 0.00 | 0.00 | 0.00 | 82 | 1012.7 |
| 20260504014502 | 49 | 155 | 11.0 | 15.0 | 0.00 | 0.00 | 0.00 | 82 | 1012.8 |
| 20260504014001 | 50 | 178 | 9.0 | 14.0 | 0.00 | 0.00 | 0.00 | 81 | 1012.7 |
| 20260504013502 | 49 | 167 | 9.0 | 15.0 | 0.00 | 0.00 | 0.00 | 80 | 1012.8 |
| 20260504013002 | 49 | 160 | 6.0 | 12.0 | 0.00 | 0.00 | 0.00 | 81 | 1012.8 |
| 20260504012501 | 49 | 169 | 7.0 | 14.0 | 0.00 | 0.00 | 0.00 | 83 | 1013.0 |
| 20260504012002 | 49 | 155 | 9.0 | 18.0 | 0.00 | 0.00 | 0.00 | 82 | 1012.9 |
| 20260504011501 | 49 | 151 | 4.0 | 20.0 | 0.00 | 0.00 | 0.00 | 82 | 1012.9 |
| 20260504011002 | 49 | 152 | 13.0 | 18.0 | 0.00 | 0.00 | 0.00 | 82 | 1013.0 |
| 20260504010501 | 49 | 161 | 5.0 | 18.0 | 0.00 | 0.00 | 0.00 | 81 | 1012.9 |
| 20260504010002 | 49 | 165 | 4.0 | 14.0 | 0.00 | 0.00 | 0.00 | 81 | 1013.0 |
| 20260504005501 | 49 | 145 | 8.0 | 16.0 | 0.00 | 0.00 | 0.00 | 81 | 1013.0 |
| 20260504005002 | 49 | 156 | 6.0 | 15.0 | 0.00 | 0.00 | 0.00 | 80 | 1013.1 |
| 20260504004501 | 49 | 151 | 9.0 | 15.0 | 0.00 | 0.00 | 0.00 | 81 | 1013.2 |
| 20260504004002 | 49 | 164 | 5.0 | 10.0 | 0.00 | 0.00 | 0.00 | 80 | 1013.1 |
| 20260504003501 | 49 | 150 | 9.0 | 17.0 | 0.00 | 0.00 | 0.00 | 80 | 1013.1 |
| 20260504003001 | 50 | 164 | 9.0 | 15.0 | 0.00 | 0.00 | 0.00 | 80 | 1013.2 |
| 20260504002501 | 50 | 156 | 4.0 | 10.0 | 0.00 | 0.00 | 0.00 | 80 | 1013.3 |
| 20260504002002 | 50 | 153 | 8.0 | 10.0 | 0.00 | 0.00 | 0.00 | 80 | 1013.4 |
| 20260504001502 | 50 | 165 | 4.0 | 11.0 | 0.00 | 0.00 | 0.00 | 79 | 1013.2 |
| 20260504001001 | 50 | 162 | 6.0 | 13.0 | 0.00 | 0.00 | 0.00 | 79 | 1013.4 |
| 20260504000502 | 50 | 168 | 5.0 | 13.0 | 0.00 | 0.00 | 0.00 | 78 | 1013.4 |
| 20260504000003 | 50 | 167 | 5.0 | 15.0 | 0.00 | 0.00 | 0.00 | 79 | 1013.4 |
| 20260503235502 | 50 | 153 | 10.0 | 15.0 | 0.00 | 0.00 | 0.00 | 79 | 1013.2 |
| 20260503235001 | 50 | 153 | 4.0 | 11.0 | 0.00 | 0.00 | 0.00 | 79 | 1013.2 |
| 20260503234502 | 50 | 154 | 6.0 | 12.0 | 0.00 | 0.00 | 0.00 | 79 | 1013.3 |
| 20260503234001 | 50 | 156 | 6.0 | 15.0 | 0.00 | 0.00 | 0.00 | 77 | 1013.2 |
| 20260503233502 | 50 | 187 | 5.0 | 14.0 | 0.00 | 0.00 | 0.00 | 78 | 1013.4 |
| 20260503233001 | 50 | 150 | 9.0 | 16.0 | 0.00 | 0.00 | 0.00 | 77 | 1013.4 |
| 20260503232502 | 50 | 175 | 11.0 | 14.0 | 0.00 | 0.00 | 0.00 | 77 | 1013.5 |
| 20260503232001 | 50 | 186 | 8.0 | 13.0 | 0.00 | 0.00 | 0.00 | 77 | 1013.3 |
| 20260503231502 | 50 | 191 | 5.0 | 16.0 | 0.00 | 0.00 | 0.00 | 77 | 1013.5 |
| 20260503231002 | 50 | 200 | 7.0 | 13.0 | 0.00 | 0.00 | 0.00 | 77 | 1013.7 |
| 20260503230502 | 50 | 186 | 7.0 | 14.0 | 0.00 | 0.00 | 0.00 | 76 | 1013.6 |
| 20260503230001 | 50 | 196 | 4.0 | 11.0 | 0.00 | 0.00 | 0.00 | 77 | 1013.8 |
| 20260503225502 | 50 | 179 | 5.0 | 12.0 | 0.00 | 0.00 | 0.00 | 77 | 1013.8 |
| 20260503225001 | 50 | 175 | 4.0 | 12.0 | 0.00 | 0.00 | 0.00 | 78 | 1014.0 |
| 20260503224501 | 50 | 196 | 7.0 | 14.0 | 0.00 | 0.00 | 0.00 | 76 | 1013.8 |
| 20260503224002 | 50 | 179 | 5.0 | 16.0 | 0.00 | 0.00 | 0.00 | 76 | 1014.0 |
| 20260503223501 | 50 | 198 | 11.0 | 16.0 | 0.00 | 0.00 | 0.00 | 78 | 1014.2 |
| 20260503223001 | 50 | 203 | 4.0 | 14.0 | 0.00 | 0.00 | 0.00 | 77 | 1014.1 |
| 20260503222502 | 50 | 204 | 9.0 | 16.0 | 0.00 | 0.00 | 0.00 | 76 | 1014.4 |
| 20260503222001 | 50 | 178 | 6.0 | 17.0 | 0.00 | 0.00 | 0.00 | 78 | 1014.4 |
| 20260503221502 | 51 | 212 | 12.0 | 19.0 | 0.00 | 0.00 | 0.00 | 76 | 1014.5 |
| 20260503221002 | 51 | 220 | 18.0 | 26.0 | 0.00 | 0.00 | 0.00 | 76 | 1014.6 |
| 20260503220502 | 51 | 222 | 15.0 | 25.0 | 0.00 | 0.00 | 0.00 | 76 | 1014.7 |
| 20260503220002 | 51 | 220 | 20.0 | 28.0 | 0.00 | 0.00 | 0.00 | 75 | 1014.5 |
| 20260503215502 | 51 | 213 | 16.0 | 26.0 | 0.00 | 0.00 | 0.00 | 77 | 1014.7 |
| 20260503215002 | 52 | 216 | 18.0 | 30.0 | 0.00 | 0.00 | 0.00 | 75 | 1014.8 |
| 20260503214501 | 52 | 240 | 22.0 | 32.0 | 0.00 | 0.00 | 0.00 | 73 | 1014.9 |
| 20260503214002 | 52 | 249 | 29.0 | 29.0 | 0.00 | 0.00 | 0.00 | 75 | 1014.8 |
| 20260503213502 | 53 | 218 | 29.0 | 34.0 | 0.00 | 0.00 | 0.00 | 73 | 1015.2 |
| 20260503213001 | 52 | 245 | 32.0 | 38.0 | 0.00 | 0.00 | 0.00 | 72 | 1015.1 |
| 20260503212502 | 53 | 240 | 24.0 | 43.0 | 0.00 | 0.00 | 0.00 | 71 | 1015.0 |
| 20260503212001 | 53 | 231 | 26.0 | 42.0 | 0.00 | 0.00 | 0.00 | 71 | 1015.1 |
| 20260503211502 | 53 | 252 | 24.0 | 40.0 | 0.00 | 0.00 | 0.00 | 71 | 1015.1 |
| 20260503211002 | 54 | 257 | 37.0 | 43.0 | 0.00 | 0.00 | 0.00 | 69 | 1015.0 |
| 20260503210502 | 54 | 247 | 18.0 | 41.0 | 0.00 | 0.00 | 0.00 | 69 | 1014.9 |
| 20260503210002 | 55 | 241 | 28.0 | 45.0 | 0.00 | 0.00 | 0.00 | 67 | 1014.8 |
| 20260503205502 | 56 | 255 | 23.0 | 43.0 | 0.00 | 0.00 | 0.00 | 64 | 1014.7 |
| 20260503205001 | 56 | 256 | 20.0 | 45.0 | 0.00 | 0.00 | 0.00 | 63 | 1014.7 |
| 20260503204502 | 59 | 247 | 21.0 | 33.0 | 0.00 | 0.00 | 0.00 | 50 | 1014.6 |
| 20260503204002 | 59 | 239 | 23.0 | 32.0 | 0.00 | 0.00 | 0.00 | 50 | 1014.7 |
| 20260503203502 | 59 | 241 | 17.0 | 33.0 | 0.00 | 0.00 | 0.00 | 50 | 1014.8 |
| 20260503203002 | 60 | 240 | 21.0 | 30.0 | 0.00 | 0.00 | 0.00 | 47 | 1014.8 |
| 20260503202501 | 60 | 236 | 13.0 | 33.0 | 0.00 | 0.00 | 0.00 | 48 | 1014.9 |
| 20260503202002 | 60 | 233 | 22.0 | 32.0 | 0.00 | 0.00 | 0.00 | 47 | 1015.0 |
| 20260503201502 | 60 | 245 | 19.0 | 24.0 | 0.00 | 0.00 | 0.00 | 46 | 1014.9 |
| 20260503201002 | 60 | 236 | 28.0 | 30.0 | 0.00 | 0.00 | 0.00 | 45 | 1015.1 |
| 20260503200502 | 60 | 242 | 23.0 | 26.0 | 0.00 | 0.00 | 0.00 | 47 | 1015.2 |
| 20260503200002 | 61 | 225 | 19.0 | 26.0 | 0.00 | 0.00 | 0.00 | 46 | 1015.1 |
| 20260503195502 | 61 | 221 | 23.0 | 27.0 | 0.00 | 0.00 | 0.00 | 43 | 1015.1 |
| 20260503195001 | 60 | 228 | 15.0 | 30.0 | 0.00 | 0.00 | 0.00 | 45 | 1015.1 |
| 20260503194502 | 61 | 235 | 22.0 | 33.0 | 0.00 | 0.00 | 0.00 | 44 | 1015.2 |
| 20260503194001 | 60 | 249 | 27.0 | 29.0 | 0.00 | 0.00 | 0.00 | 45 | 1015.3 |
| 20260503193502 | 61 | 222 | 25.0 | 29.0 | 0.00 | 0.00 | 0.00 | 43 | 1015.4 |
| 20260503193002 | 61 | 231 | 31.0 | 33.0 | 0.00 | 0.00 | 0.00 | 43 | 1015.3 |
| 20260503192501 | 62 | 215 | 23.0 | 28.0 | 0.00 | 0.00 | 0.00 | 42 | 1015.4 |
| 20260503192002 | 62 | 229 | 22.0 | 27.0 | 0.00 | 0.00 | 0.00 | 43 | 1015.3 |
| 20260503191502 | 61 | 236 | 21.0 | 35.0 | 0.00 | 0.00 | 0.00 | 42 | 1015.3 |
| 20260503191002 | 62 | 216 | 24.0 | 27.0 | 0.00 | 0.00 | 0.00 | 43 | 1015.5 |
| 20260503190501 | 62 | 216 | 23.0 | 34.0 | 0.00 | 0.00 | 0.00 | 41 | 1015.4 |
| 20260503190002 | 61 | 233 | 17.0 | 32.0 | 0.00 | 0.00 | 0.00 | 43 | 1015.6 |
| 20260503185502 | 61 | 246 | 16.0 | 29.0 | 0.00 | 0.00 | 0.00 | 43 | 1015.6 |
| 20260503185001 | 62 | 246 | 30.0 | 35.0 | 0.00 | 0.00 | 0.00 | 41 | 1015.9 |
| 20260503184502 | 62 | 225 | 17.0 | 32.0 | 0.00 | 0.00 | 0.00 | 45 | 1015.8 |
| 20260503184001 | 61 | 219 | 26.0 | 34.0 | 0.00 | 0.00 | 0.00 | 43 | 1016.0 |
| 20260503183501 | 62 | 232 | 27.0 | 31.0 | 0.00 | 0.00 | 0.00 | 41 | 1016.2 |
| 20260503183002 | 61 | 229 | 23.0 | 36.0 | 0.00 | 0.00 | 0.00 | 42 | 1015.9 |
| 20260503182502 | 61 | 236 | 16.0 | 29.0 | 0.00 | 0.00 | 0.00 | 41 | 1016.2 |
| 20260503182002 | 62 | 225 | 22.0 | 31.0 | 0.00 | 0.00 | 0.00 | 43 | 1016.2 |
| 20260503181503 | 61 | 219 | 23.0 | 32.0 | 0.00 | 0.00 | 0.00 | 41 | 1016.3 |
| 20260503181002 | 61 | 225 | 30.0 | 37.0 | 0.00 | 0.00 | 0.00 | 40 | 1016.2 |
| 20260503180502 | 61 | 220 | 23.0 | 34.0 | 0.00 | 0.00 | 0.00 | 39 | 1016.2 |
| 20260503180002 | 61 | 190 | 4.0 | 31.0 | 0.00 | 0.00 | 0.00 | 42 | 1016.3 |
| 20260503175501 | 61 | 225 | 14.0 | 32.0 | 0.00 | 0.00 | 0.00 | 43 | 1016.3 |
| 20260503175002 | 61 | 219 | 21.0 | 34.0 | 0.00 | 0.00 | 0.00 | 43 | 1016.5 |
| 20260503174501 | 61 | 227 | 29.0 | 34.0 | 0.00 | 0.00 | 0.00 | 42 | 1016.6 |
| 20260503174002 | 61 | 219 | 21.0 | 35.0 | 0.00 | 0.00 | 0.00 | 40 | 1016.7 |
| 20260503173502 | 60 | 229 | 17.0 | 35.0 | 0.00 | 0.00 | 0.00 | 42 | 1016.5 |
| 20260503173001 | 61 | 246 | 18.0 | 34.0 | 0.00 | 0.00 | 0.00 | 44 | 1016.9 |
| 20260503172501 | 61 | 223 | 18.0 | 30.0 | 0.00 | 0.00 | 0.00 | 42 | 1016.7 |
| 20260503172002 | 60 | 235 | 26.0 | 26.0 | 0.00 | 0.00 | 0.00 | 42 | 1016.8 |
| 20260503171502 | 61 | 222 | 21.0 | 28.0 | 0.00 | 0.00 | 0.00 | 45 | 1016.9 |
| 20260503171002 | 60 | 233 | 10.0 | 30.0 | 0.00 | 0.00 | 0.00 | 45 | 1017.0 |
| 20260503170502 | 60 | 223 | 13.0 | 32.0 | 0.00 | 0.00 | 0.00 | 44 | 1017.2 |